Weather History for KABI - November, 2013

Change the Weather History Date:

Wednesday, November 6, 2013

  Actual Average Record
Temperature  
Mean Temperature 52 °F 59 °F  
Max Temperature 67 °F 70 °F 88 °F (1945)
Min Temperature 37 °F 47 °F 24 °F (1959)
Degree Days  
Heating Degree Days 13 8  
Month to date heating degree days 37 41  
Since 1 July heating degree days 116 145  
Cooling Degree Days 0 1  
Month to date cooling degree days 3 8  
Year to date cooling degree days 2712 2397  
Growing Degree Days 2 (Base 50)    
Moisture  
Dew Point 35 °F    
Average Humidity 56    
Maximum Humidity 87    
Minimum Humidity 25    
Precipitation  
Precipitation T in 0.06 in 1.13 in (1925)
Month to date precipitation T 0.38  
Year to date precipitation 20.91 22.56  
Sea Level Pressure  
Sea Level Pressure 30.22 in    
Wind  
Wind Speed 13 mph (North)    
Max Wind Speed 29 mph    
Max Gust Speed 38 mph    
Visibility 10 miles    
Events Rain    
T = Trace of Precipitation, MM = Missing Value Source: NWS Daily Summary

Daily Weather History Graph

Daily Weather History Graph

Search for Another Location

Airport or City:

Trip Planner

Search our weather history database for the weather conditions in past years. The results will help you decide how hot, cold, wet, or windy it might be!

Date:

Astronomy

Nov. 06, 2013 Rise Set
Actual Time 7:00 AM CST 5:43 PM CST
Civil Twilight 6:34 AM CST 6:09 PM CST
Nautical Twilight 6:05 AM CST 6:38 PM CST
Astronomical Twilight 5:36 AM CST 7:07 PM CST
Moon 10:12 AM CST (11/6) 8:54 PM CST (11/6)
Length of Visible Light 11h 34m
Length of Day
10h 43m
Waxing Crescent, 14% of the Moon is Illuminated
Nov 6
Waxing Crescent
Nov 9
First Quarter
Nov 17
Full
Nov 25
Last Quarter
Dec 2
New

Hourly Weather History & Observations

Time (CST) Temp. Windchill Dew Point Humidity Pressure Visibility Wind Dir Wind Speed Gust Speed Precip Events Conditions
12:52 AM 66.0 °F - 61.0 °F 84% 29.98 in 10.0 mi NNW 13.8 mph 19.6 mph N/A   Overcast
12:58 AM 62.6 °F - 57.2 °F 82% 30.04 in 10.0 mi North 21.9 mph 26.5 mph N/A   Overcast
1:42 AM 53.6 °F - 48.2 °F 82% 30.06 in 10.0 mi North 21.9 mph 28.8 mph 0.00 in Rain Light Rain
1:50 AM 53.6 °F - 46.4 °F 77% 30.07 in 10.0 mi North 25.3 mph - 0.00 in Rain Light Rain
1:52 AM 53.1 °F - 46.9 °F 80% 30.04 in 10.0 mi North 23.0 mph 27.6 mph 0.00 in Rain Light Rain
2:52 AM 52.0 °F - 43.0 °F 71% 30.07 in 10.0 mi North 16.1 mph 23.0 mph 0.00 in   Overcast
3:44 AM 51.8 °F - 42.8 °F 71% 30.13 in 10.0 mi North 13.8 mph - N/A   Overcast
3:52 AM 51.1 °F - 42.1 °F 71% 30.09 in 10.0 mi NNW 16.1 mph - N/A   Overcast
4:52 AM 50.0 °F - 39.0 °F 66% 30.12 in 10.0 mi North 20.7 mph - N/A   Overcast
5:52 AM 46.0 °F 38.5 °F 37.0 °F 71% 30.16 in 10.0 mi North 19.6 mph - N/A   Scattered Clouds
6:52 AM 45.0 °F 37.4 °F 35.1 °F 68% 30.19 in 10.0 mi North 18.4 mph 26.5 mph N/A   Clear
7:52 AM 45.0 °F 38.2 °F 35.1 °F 68% 30.24 in 10.0 mi North 15.0 mph - N/A   Scattered Clouds
8:52 AM 48.0 °F - 36.0 °F 63% 30.26 in 10.0 mi North 18.4 mph - N/A   Partly Cloudy
9:52 AM 51.1 °F - 34.0 °F 52% 30.27 in 10.0 mi North 19.6 mph - N/A   Clear
10:52 AM 54.0 °F - 34.0 °F 47% 30.27 in 10.0 mi NNW 19.6 mph 26.5 mph N/A   Clear
11:52 AM 55.9 °F - 30.9 °F 39% 30.28 in 10.0 mi NNE 12.7 mph - N/A   Clear
12:52 PM 59.0 °F - 28.9 °F 32% 30.26 in 10.0 mi North 12.7 mph - N/A   Clear
1:52 PM 60.1 °F - 27.0 °F 28% 30.26 in 10.0 mi North 13.8 mph 21.9 mph N/A   Clear
2:52 PM 62.1 °F - 27.0 °F 26% 30.26 in 10.0 mi North 10.4 mph 17.3 mph N/A   Clear
3:52 PM 62.1 °F - 26.1 °F 25% 30.26 in 10.0 mi North 10.4 mph - N/A   Clear
4:52 PM 60.1 °F - 24.1 °F 25% 30.27 in 10.0 mi North 10.4 mph - N/A   Clear
5:52 PM 55.0 °F - 26.1 °F 33% 30.30 in 10.0 mi North 9.2 mph - N/A   Clear
6:52 PM 51.1 °F - 26.1 °F 38% 30.32 in 10.0 mi NNE 5.8 mph - N/A   Clear
7:52 PM 48.9 °F - 26.1 °F 41% 30.35 in 10.0 mi ENE 5.8 mph - N/A   Clear
8:52 PM 46.9 °F - 27.0 °F 46% 30.35 in 10.0 mi East 4.6 mph - N/A   Clear
9:52 PM 46.0 °F 43.1 °F 27.0 °F 47% 30.37 in 10.0 mi ENE 5.8 mph - N/A   Clear
10:52 PM 44.1 °F 41.5 °F 27.0 °F 51% 30.38 in 10.0 mi East 4.6 mph - N/A   Clear
11:52 PM 39.0 °F - 28.0 °F 65% 30.38 in 10.0 mi Calm Calm - N/A   Clear